Terminal Aerodrome Forecast
Issued by NWS

Home | Current Version | Previous Version | Text Only | Print | Product List | Glossary On
Versions: 1 2 3 4 5 6 7 8 9 10 11 12 13 14 15 16 17 18 19 20 21
000
FTUS43 KPAH 180500
TAFCGI
TAF
KCGI 180520Z 1806/1906 VRB02KT 4SM BR BKN040
      TEMPO 1806/1809 1SM BR SCT030
     FM180900 VRB02KT 1SM BR BKN030
      TEMPO 1809/1812 1/2SM FG BKN002
     FM181400 07005KT P6SM BKN025
     FM181800 06006KT P6SM BKN035=

USA.gov is the U.S. government's official web portal to all federal, state and local government web resources and services.